Temp
-8 -8 -8 -8 -7 -7 -7 -7 -6 -7 -7 -6 -6 -5 -5 -6 -6 -5 -5 -6 -5 -5 -5 -5 -5 -5 -5 -5 -5 -5 -5 -5 -5 -6 -6 -6 -6 -5 -5 -6 -6 -6 -6 -6 -5 -5 -5 -5 -6
-7 -8 -7 -8 -7 -7 -8 -7 -7 -7 -6 -6 -5 -5 -5 -6 -6 -6 -5 -6 -6 -6 -5 -5 -5 -5 -5 -5 -6 -6 -6 -6 -6 -6 -6 -6 -6 -6 -6 -6 -6 -6 -6 -6 -6 -6 -6 -6 -6
-7 -8 -7 -8 -8 -7 -8 -7 -6 -6 -6 -5 -5 -5 -5 -6 -6 -6 -6 -7 -6 -6 -5 -5 -5 -5 -5 -6 -6 -6 -6 -6 -6 -6 -6 -6 -6 -6 -6 -6 -6 -6 -7 -7 -7 -7 -7 -6 -6
-8 -7 -6 -8 -9 -8 -7 -8 -7 -6 -6 -5 -6 -5 -5 -5 -6 -6 -5 -5 -6 -5 -6 -6 -5 -6 -6 -6 -6 -6 -6 -6 -6 -6 -6 -7 -7 -7 -7 -7 -7 -7 -7 -7 -7 -7 -7 -7 -7
-7 -6 -8 -9 -8 -7 -8 -7 -6 -6 -6 -5 -6 -6 -5 -5 -5 -5 -5 -5 -6 -6 -6 -6 -6 -6 -6 -6 -7 -7 -7 -7 -7 -7 -7 -7 -7 -7 -7 -7 -7 -7 -7 -7 -7 -7 -7 -7 -7
-7 -8 -8 -9 -7 -6 -6 -6 -5 -6 -6 -5 -5 -6 -6 -6 -6 -6 -6 -6 -6 -6 -6 -6 -6 -6 -7 -7 -7 -7 -7 -7 -7 -7 -8 -8 -8 -8 -8 -8 -7 -7 -8 -8 -8 -7 -7 -7 -7
-7 -7 -8 -8 -7 -7 -6 -6 -6 -6 -6 -6 -5 -6 -6 -6 -6 -6 -6 -5 -6 -6 -7 -7 -7 -7 -7 -7 -7 -7 -7 -8 -8 -8 -8 -8 -8 -8 -8 -8 -8 -8 -8 -8 -8 -8 -8 -8 -8
-8 -8 -8 -8 -7 -6 -6 -6 -6 -6 -6 -6 -6 -6 -6 -6 -6 -6 -7 -6 -6 -6 -6 -7 -7 -7 -7 -7 -8 -8 -8 -8 -8 -8 -8 -8 -8 -8 -8 -8 -8 -8 -8 -8 -8 -8 -8 -8 -8
-7 -8 -9 -8 -7 -7 -6 -6 -7 -6 -6 -6 -6 -6 -6 -6 -6 -7 -7 -7 -7 -6 -5 -6 -7 -7 -8 -8 -8 -8 -8 -7 -8 -8 -8 -8 -8 -8 -8 -8 -8 -8 -8 -9 -9 -9 -9 -9 -9
-8 -8 -9 -8 -7 -7 -7 -7 -7 -6 -5 -6 -7 -7 -7 -7 -7 -7 -7 -7 -7 -7 -6 -5 -6 -7 -8 -8 -8 -8 -9 -9 -9 -8 -8 -9 -9 -9 -8 -9 -8 -8 -9 -9 -9 -8 -9 -9 -9
-9 -8 -7 -8 -8 -8 -8 -7 -7 -7 -7 -7 -7 -7 -8 -8 -7 -7 -7 -7 -6 -7 -7 -7 -6 -7 -7 -8 -8 -8 -8 -9 -9 -9 -9 -9 -9 -9 -9 -9 -9 -9 -9 -9 -9 -9 -9 -10 -10
-8 -8 -8 -8 -8 -8 -8 -8 -7 -7 -7 -8 -8 -7 -7 -8 -7 -7 -7 -7 -7 -7 -8 -7 -7 -7 -7 -8 -8 -8 -8 -8 -9 -9 -9 -10 -10 -10 -9 -9 -9 -9 -9 -9 -10 -10 -10 -11 -11
-7 -7 -7 -7 -7 -7 -7 -8 -8 -7 -6 -8 -8 -7 -7 -7 -7 -7 -7 -7 -7 -7 -7 -7 -8 -8 -8 -8 -8 -8 -8 -7 -8 -8 -9 -10 -10 -10 -10 -10 -10 -10 -10 -10 -10 -11 -11 -11 -11
-8 -7 -7 -8 -8 -7 -7 -8 -7 -7 -6 -8 -8 -7 -7 -7 -7 -7 -7 -7 -7 -7 -7 -7 -7 -7 -7 -8 -8 -8 -7 -7 -7 -8 -9 -10 -10 -10 -10 -9 -10 -10 -11 -11 -11 -11 -11 -11 -11
-7 -8 -7 -8 -7 -8 -8 -7 -7 -8 -8 -8 -8 -7 -7 -7 -7 -7 -8 -7 -7 -7 -7 -7 -7 -7 -7 -7 -7 -8 -8 -8 -8 -9 -9 -9 -10 -10 -10 -10 -10 -11 -11 -11 -12 -12 -12 -11 -12
-7 -8 -8 -7 -8 -7 -8 -8 -8 -8 -7 -8 -8 -8 -7 -7 -7 -8 -8 -8 -7 -7 -7 -7 -7 -7 -7 -7 -7 -8 -8 -9 -9 -10 -10 -10 -10 -10 -10 -10 -10 -11 -11 -11 -12 -12 -12 -12 -12
-8 -8 -8 -8 -8 -8 -7 -8 -8 -8 -8 -8 -8 -7 -7 -8 -7 -7 -8 -8 -8 -8 -8 -8 -8 -8 -8 -8 -8 -8 -8 -9 -10 -10 -10 -10 -10 -10 -10 -11 -11 -11 -11 -11 -12 -12 -12 -12 -12
-8 -8 -8 -8 -8 -8 -8 -8 -8 -8 -8 -7 -8 -9 -8 -7 -7 -7 -8 -8 -8 -8 -8 -8 -8 -8 -8 -8 -8 -9 -9 -9 -9 -10 -10 -10 -10 -10 -11 -11 -11 -11 -11 -12 -12 -12 -12 -12 -12
-8 -8 -8 -8 -8 -8 -8 -8 -8 -8 -8 -6 -7 -9 -9 -8 -8 -8 -8 -9 -8 -8 -8 -8 -8 -8 -8 -9 -9 -9 -9 -10 -10 -10 -11 -10 -10 -11 -11 -11 -11 -11 -11 -12 -12 -12 -12 -12 -12
-8 -8 -8 -8 -8 -8 -8 -8 -8 -9 -8 -7 -7 -8 -9 -10 -9 -10 -9 -9 -9 -8 -9 -8 -9 -9 -9 -9 -9 -9 -10 -10 -10 -10 -10 -11 -11 -11 -11 -11 -12 -12 -12 -12 -12 -12 -12 -12 -12
-8 -9 -9 -8 -8 -8 -7 -8 -8 -8 -8 -7 -8 -7 -9 -10 -9 -10 -9 -9 -8 -8 -9 -9 -9 -8 -9 -10 -10 -10 -10 -10 -10 -10 -11 -11 -11 -11 -11 -11 -12 -12 -12 -12 -12 -12 -12 -12 -13
-8 -8 -8 -8 -7 -7 -7 -7 -8 -8 -8 -8 -9 -10 -10 -9 -9 -9 -9 -9 -8 -8 -8 -8 -9 -9 -10 -10 -10 -10 -10 -11 -11 -11 -11 -11 -11 -11 -11 -12 -12 -12 -12 -12 -12 -12 -13 -13 -13
-8 -8 -8 -8 -8 -9 -8 -8 -8 -8 -9 -9 -9 -10 -10 -9 -9 -9 -9 -9 -9 -9 -9 -9 -9 -9 -10 -11 -11 -11 -11 -11 -11 -11 -12 -11 -11 -11 -12 -12 -12 -12 -12 -12 -13 -13 -13 -13 -13
-8 -8 -8 -8 -7 -9 -9 -9 -8 -9 -9 -9 -9 -9 -9 -9 -9 -9 -8 -8 -9 -9 -9 -9 -9 -10 -11 -11 -11 -11 -11 -11 -11 -12 -12 -12 -12 -12 -12 -12 -12 -12 -12 -13 -13 -13 -13 -13 -13
-9 -8 -8 -8 -9 -9 -8 -9 -9 -9 -9 -8 -8 -8 -8 -8 -9 -8 -8 -8 -9 -9 -9 -9 -10 -10 -11 -11 -11 -11 -11 -11 -12 -12 -12 -12 -12 -12 -12 -12 -12 -13 -13 -13 -13 -13 -13 -13 -13
-8 -9 -9 -8 -8 -8 -8 -9 -9 -9 -9 -8 -8 -8 -9 -8 -8 -8 -8 -9 -9 -9 -10 -10 -10 -11 -12 -12 -12 -11 -11 -12 -12 -12 -12 -12 -12 -12 -12 -12 -13 -13 -13 -13 -13 -13 -13 -13 -13
-8 -9 -8 -8 -9 -8 -8 -8 -8 -8 -8 -8 -8 -8 -9 -8 -8 -8 -9 -9 -9 -10 -10 -10 -11 -12 -12 -12 -13 -12 -10 -11 -12 -12 -12 -12 -12 -12 -12 -12 -13 -13 -13 -13 -13 -13 -14 -14 -14
-9 -8 -9 -9 -8 -8 -8 -9 -10 -9 -8 -9 -8 -8 -9 -9 -8 -8 -9 -9 -9 -10 -10 -10 -10 -11 -12 -11 -12 -13 -11 -12 -12 -12 -12 -12 -12 -12 -12 -13 -13 -13 -13 -13 -13 -14 -14 -14 -14
-9 -9 -9 -9 -9 -9 -9 -9 -9 -9 -8 -9 -9 -9 -9 -8 -8 -8 -9 -9 -9 -9 -10 -11 -10 -10 -11 -11 -11 -12 -11 -13 -13 -12 -12 -12 -12 -12 -13 -13 -13 -13 -13 -13 -13 -13 -14 -14 -14
-9 -9 -9 -8 -9 -9 -9 -8 -9 -9 -8 -8 -9 -9 -9 -8 -9 -9 -9 -9 -10 -9 -10 -11 -11 -11 -10 -11 -11 -12 -12 -12 -12 -12 -12 -12 -13 -13 -13 -13 -13 -13 -13 -13 -13 -14 -14 -14 -14
Height
5929 5926 5925 5928 5918 5924 5918 5920 5923 5926 5925 5923 5923 5923 5921 5920 5919 5920 5919 5918 5915 5916 5913 5912 5911 5909 5907 5906 5904 5903 5901 5900 5898 5896 5894 5892 5891 5889 5888 5886 5885 5883 5881 5880 5879 5877 5875 5873 5870
5929 5925 5928 5931 5928 5925 5925 5925 5925 5924 5923 5923 5922 5924 5922 5922 5919 5919 5917 5921 5917 5915 5913 5912 5911 5909 5907 5906 5904 5902 5900 5899 5897 5895 5892 5890 5888 5886 5884 5883 5882 5881 5879 5877 5875 5873 5872 5870 5869
5936 5934 5935 5930 5927 5926 5927 5926 5925 5925 5923 5923 5923 5923 5923 5923 5921 5920 5918 5919 5917 5916 5913 5913 5911 5908 5906 5904 5902 5901 5899 5897 5895 5893 5892 5890 5888 5885 5883 5881 5879 5878 5876 5874 5873 5870 5869 5868 5867
5937 5938 5934 5928 5927 5928 5927 5928 5926 5925 5926 5925 5925 5923 5923 5922 5922 5920 5921 5922 5919 5917 5915 5912 5909 5906 5904 5903 5901 5899 5897 5895 5893 5890 5888 5886 5884 5882 5880 5878 5875 5873 5872 5871 5870 5868 5866 5864 5863
5940 5936 5933 5932 5932 5932 5932 5930 5929 5928 5927 5926 5926 5924 5923 5923 5921 5920 5920 5920 5918 5915 5914 5911 5907 5905 5903 5902 5900 5898 5896 5893 5891 5889 5886 5884 5881 5878 5876 5874 5872 5870 5868 5865 5864 5862 5861 5860 5858
5940 5937 5932 5935 5937 5937 5934 5932 5930 5930 5929 5926 5928 5927 5926 5925 5923 5921 5918 5920 5919 5914 5910 5907 5905 5904 5902 5900 5897 5895 5892 5890 5887 5885 5882 5880 5877 5874 5871 5870 5867 5865 5863 5861 5859 5857 5856 5854 5852
5941 5936 5934 5941 5940 5938 5936 5934 5933 5932 5931 5929 5928 5927 5927 5925 5923 5922 5917 5915 5917 5915 5912 5907 5903 5901 5900 5898 5896 5893 5890 5887 5883 5881 5878 5875 5873 5870 5868 5865 5863 5861 5859 5856 5854 5852 5850 5848 5846
5930 5938 5943 5944 5942 5939 5937 5935 5934 5934 5932 5931 5929 5927 5926 5923 5920 5918 5917 5912 5908 5912 5910 5907 5905 5901 5896 5894 5892 5889 5886 5883 5880 5876 5873 5871 5868 5865 5862 5860 5858 5855 5853 5851 5848 5846 5844 5843 5841
5938 5950 5947 5944 5941 5940 5938 5938 5935 5934 5933 5930 5927 5927 5924 5920 5918 5916 5916 5913 5909 5902 5905 5904 5901 5899 5896 5892 5888 5885 5881 5878 5875 5872 5869 5866 5863 5860 5856 5855 5852 5850 5847 5845 5842 5840 5839 5837 5836
5942 5944 5950 5947 5945 5941 5938 5937 5935 5932 5932 5931 5931 5927 5924 5920 5917 5914 5912 5909 5906 5902 5896 5898 5898 5896 5893 5889 5885 5882 5878 5872 5871 5868 5865 5862 5859 5856 5854 5850 5847 5845 5842 5839 5837 5834 5833 5830 5829
5949 5950 5949 5948 5945 5942 5939 5938 5937 5933 5932 5928 5930 5928 5924 5921 5919 5914 5911 5909 5905 5902 5898 5893 5887 5887 5885 5882 5880 5877 5875 5871 5864 5861 5859 5855 5854 5851 5848 5846 5842 5840 5837 5834 5832 5828 5826 5823 5822
5952 5951 5948 5948 5946 5944 5940 5938 5935 5933 5932 5928 5929 5927 5924 5919 5917 5915 5910 5907 5904 5901 5898 5893 5886 5881 5876 5872 5869 5867 5864 5864 5861 5855 5853 5850 5849 5847 5845 5842 5839 5837 5833 5830 5826 5823 5820 5818 5816
5951 5950 5949 5948 5946 5943 5941 5939 5937 5930 5930 5928 5927 5925 5924 5922 5916 5913 5911 5908 5903 5900 5897 5892 5887 5881 5877 5873 5870 5866 5859 5855 5854 5850 5847 5846 5846 5844 5842 5838 5835 5832 5828 5824 5821 5818 5816 5814 5811
5950 5949 5949 5944 5943 5941 5939 5934 5927 5931 5930 5926 5926 5925 5924 5921 5916 5912 5908 5905 5903 5899 5894 5890 5887 5882 5877 5872 5868 5863 5857 5853 5849 5848 5846 5844 5843 5841 5839 5835 5831 5827 5823 5820 5816 5814 5811 5809 5806
5950 5949 5946 5939 5938 5933 5940 5943 5936 5933 5928 5926 5927 5924 5923 5919 5916 5914 5909 5905 5901 5897 5894 5889 5885 5880 5875 5869 5865 5861 5857 5853 5850 5848 5845 5841 5840 5838 5834 5830 5827 5822 5818 5815 5812 5810 5807 5804 5801
5950 5947 5944 5940 5935 5937 5936 5937 5933 5929 5925 5924 5925 5924 5920 5917 5914 5912 5908 5904 5899 5894 5891 5887 5883 5879 5874 5869 5863 5860 5856 5852 5850 5847 5842 5838 5834 5832 5829 5825 5822 5817 5814 5810 5807 5805 5801 5799 5796
5948 5946 5945 5940 5941 5934 5931 5931 5920 5925 5916 5922 5922 5921 5918 5914 5914 5910 5907 5903 5897 5893 5889 5886 5881 5876 5872 5867 5862 5858 5854 5850 5846 5843 5839 5835 5832 5827 5825 5821 5816 5813 5809 5805 5802 5799 5796 5793 5791
5954 5952 5951 5946 5942 5931 5933 5929 5930 5920 5900 5919 5915 5912 5914 5910 5908 5905 5903 5900 5897 5892 5887 5882 5878 5874 5868 5864 5859 5855 5852 5847 5843 5839 5836 5831 5827 5823 5819 5816 5811 5808 5804 5801 5798 5795 5791 5788 5786
5960 5956 5952 5941 5938 5935 5936 5922 5928 5925 5921 5920 5915 5897 5909 5913 5905 5899 5896 5894 5892 5889 5884 5880 5875 5869 5865 5860 5855 5851 5848 5844 5840 5835 5831 5827 5823 5818 5815 5811 5808 5804 5800 5798 5795 5791 5788 5785 5783
5957 5954 5952 5944 5943 5941 5935 5926 5931 5925 5919 5922 5913 5909 5909 5911 5907 5900 5896 5892 5888 5884 5880 5875 5870 5864 5860 5856 5852 5849 5845 5840 5837 5832 5827 5823 5818 5814 5811 5808 5805 5801 5797 5794 5791 5788 5785 5782 5780
5952 5951 5949 5944 5942 5936 5933 5928 5926 5923 5920 5919 5916 5915 5914 5916 5908 5902 5898 5893 5888 5883 5877 5872 5866 5861 5856 5852 5849 5845 5841 5836 5831 5826 5823 5820 5816 5812 5808 5804 5801 5797 5794 5790 5787 5785 5782 5780 5778
5953 5950 5947 5946 5940 5937 5929 5923 5922 5919 5917 5914 5913 5911 5915 5914 5906 5903 5897 5892 5887 5880 5874 5869 5863 5857 5851 5846 5843 5840 5835 5831 5828 5825 5821 5815 5811 5808 5804 5801 5797 5794 5791 5788 5785 5782 5780 5777 5774
5949 5947 5946 5944 5938 5932 5926 5923 5918 5916 5916 5912 5908 5910 5912 5910 5906 5900 5896 5890 5883 5877 5871 5865 5858 5852 5846 5842 5838 5834 5830 5827 5823 5819 5815 5811 5807 5804 5802 5798 5794 5791 5788 5785 5782 5779 5776 5773 5771
5948 5946 5945 5941 5935 5929 5927 5924 5923 5919 5917 5906 5904 5908 5908 5906 5904 5898 5893 5887 5880 5874 5867 5861 5853 5847 5842 5840 5836 5831 5826 5822 5819 5816 5813 5810 5806 5803 5799 5795 5792 5789 5786 5783 5779 5775 5772 5769 5767
5946 5943 5940 5939 5933 5934 5927 5924 5922 5920 5915 5914 5914 5911 5910 5906 5902 5896 5888 5884 5876 5871 5864 5856 5847 5842 5838 5833 5829 5827 5824 5819 5814 5811 5808 5805 5803 5801 5797 5793 5789 5786 5784 5780 5777 5772 5769 5766 5763
5944 5941 5938 5937 5933 5931 5931 5925 5920 5917 5915 5913 5911 5909 5905 5898 5894 5894 5883 5879 5873 5865 5859 5851 5844 5839 5832 5828 5824 5822 5820 5817 5812 5807 5805 5802 5799 5797 5793 5789 5786 5783 5780 5776 5772 5769 5764 5762 5758
5940 5938 5937 5936 5933 5931 5926 5921 5922 5916 5904 5895 5900 5898 5897 5896 5894 5890 5882 5874 5868 5860 5855 5848 5842 5834 5827 5823 5820 5822 5818 5812 5809 5804 5801 5799 5796 5793 5790 5786 5783 5780 5777 5773 5769 5765 5761 5758 5754
5937 5938 5936 5937 5932 5930 5923 5919 5922 5921 5919 5903 5904 5904 5902 5898 5891 5888 5881 5872 5867 5862 5853 5847 5841 5837 5828 5820 5820 5816 5814 5810 5802 5800 5797 5795 5792 5789 5787 5783 5780 5776 5772 5769 5765 5762 5758 5754 5750
5934 5934 5931 5933 5930 5928 5926 5923 5919 5916 5915 5912 5908 5905 5900 5895 5888 5879 5875 5872 5861 5856 5850 5843 5837 5830 5827 5822 5816 5809 5799 5802 5798 5798 5795 5791 5788 5785 5783 5780 5776 5772 5769 5766 5762 5758 5754 5750 5745
5930 5932 5931 5930 5928 5928 5925 5923 5919 5912 5908 5903 5902 5901 5896 5891 5884 5877 5871 5870 5862 5849 5843 5838 5832 5826 5818 5815 5811 5805 5800 5798 5795 5795 5791 5789 5785 5782 5779 5777 5773 5768 5765 5761 5757 5754 5750 5745 5741
Wind_Speed
11 3 2 9 20 10 18 6 12 12 12 12 13 14 10 11 14 14 14 13 13 11 11 11 12 12 12 13 13 13 14 14 14 13 13 14 14 14 14 13 13 12 13 12 12 12 13 13 15
4 4 4 8 14 9 7 5 15 13 11 12 15 11 9 11 11 13 14 11 11 13 12 14 14 13 13 13 13 12 12 12 13 13 14 15 16 16 16 15 14 13 14 14 15 15 14 14 15
12 13 9 14 24 20 13 17 14 10 12 13 14 12 11 10 8 10 12 12 13 13 16 16 16 16 16 15 15 15 15 15 14 13 14 14 13 14 14 14 15 16 16 15 15 15 16 16 16
19 5 13 26 21 17 18 11 13 12 11 12 11 11 13 13 12 14 15 14 14 16 15 17 17 18 18 18 19 19 18 17 17 16 16 15 15 14 15 16 16 17 18 18 17 17 17 18 18
10 13 20 25 17 11 8 8 7 9 11 11 13 14 16 16 16 15 14 14 17 18 18 17 19 19 20 20 20 20 19 19 18 18 18 17 16 16 20 20 19 20 19 18 18 17 17 19 21
19 21 20 17 12 6 4 6 9 11 9 10 13 11 13 15 16 18 20 17 16 17 22 23 21 20 20 20 21 20 19 20 20 20 20 20 21 22 21 21 21 21 21 20 20 19 19 19 21
18 22 23 15 9 6 6 5 10 9 10 12 14 15 14 16 17 16 20 21 18 16 15 19 23 23 19 18 19 20 20 19 19 19 20 22 22 23 23 22 22 24 24 22 21 20 20 21 22
18 12 10 19 10 4 2 2 6 6 8 10 13 15 16 19 18 18 20 22 22 16 17 19 17 18 23 24 21 21 20 20 19 19 20 21 21 21 21 23 22 25 23 21 19 20 21 22 23
11 9 3 8 11 10 4 3 8 4 6 11 16 18 21 22 21 21 22 20 19 24 19 19 19 18 16 20 22 23 24 23 22 23 24 22 19 20 23 23 24 22 22 20 20 20 20 20 23
13 2 14 14 14 12 15 12 12 14 10 10 16 20 20 20 21 24 26 21 20 20 25 25 20 17 18 18 19 20 21 22 21 21 20 19 18 18 21 22 20 20 20 22 21 21 22 22 21
5 11 5 7 11 15 14 13 14 16 19 23 22 18 17 18 18 19 20 18 20 20 22 26 30 26 24 21 20 18 18 19 25 26 25 22 18 21 19 18 19 20 22 23 24 25 25 25 23
5 6 4 12 13 11 16 12 12 11 10 18 17 18 16 18 19 17 19 21 22 21 20 26 30 27 29 27 29 26 23 21 21 23 24 16 16 20 19 18 20 22 24 26 26 25 23 22 21
10 6 6 6 8 14 19 20 8 11 12 15 15 13 13 14 18 19 21 20 21 18 21 25 25 29 29 26 27 27 28 24 20 22 17 14 15 18 21 23 25 27 27 26 23 21 20 20 19
12 5 4 14 5 25 31 27 3 12 19 17 10 10 13 14 18 22 24 23 21 20 19 23 23 28 29 27 26 25 22 25 20 19 10 12 16 20 24 27 27 26 24 22 20 18 19 18 20
7 3 2 8 6 17 23 9 10 7 12 12 13 17 16 19 21 25 27 27 25 24 21 22 23 24 26 28 26 25 24 25 22 17 14 16 19 21 26 28 26 24 22 19 18 19 20 20 20
20 30 35 10 14 19 18 9 10 9 6 7 13 15 19 19 22 25 26 32 32 26 22 21 22 22 23 23 23 24 25 23 21 20 23 20 23 27 31 30 24 24 22 21 20 20 20 20 20
35 33 28 27 16 22 25 28 21 5 10 5 5 18 20 22 21 21 23 32 28 29 27 27 28 26 24 21 20 21 23 24 25 27 28 27 29 33 31 29 23 25 22 21 20 20 22 20 18
26 25 20 24 5 12 22 20 25 21 32 30 11 17 27 29 29 31 32 31 31 30 30 30 30 29 27 24 21 20 24 26 26 28 29 29 29 28 29 24 22 22 21 20 19 19 20 19 19
9 14 17 19 20 24 28 6 23 27 31 16 8 7 26 29 34 37 39 37 36 37 37 34 32 30 29 26 22 21 23 26 30 30 28 27 25 26 25 21 22 19 20 19 18 18 17 17 17
7 21 10 22 26 26 30 17 25 22 30 14 30 30 29 32 32 31 36 36 38 38 36 35 36 35 29 27 23 22 24 27 29 25 26 27 27 24 20 21 18 19 19 19 17 17 18 17 16
17 17 16 22 23 23 20 13 14 21 26 12 27 25 29 26 27 26 30 37 33 36 35 34 36 36 29 24 23 24 27 30 29 29 27 25 20 20 20 19 19 19 18 17 17 17 16 16 16
16 16 19 23 22 12 12 19 20 16 13 11 30 35 29 26 30 30 32 35 35 36 37 36 33 29 24 23 23 25 27 29 30 29 25 21 22 19 20 19 20 18 17 16 16 17 17 17 16
24 17 16 16 9 6 19 20 14 32 5 8 16 26 33 34 32 35 35 37 39 37 34 33 34 31 25 23 23 24 26 27 30 28 25 21 23 23 21 20 19 18 17 17 17 17 16 16 16
18 15 16 16 23 31 23 21 22 23 28 39 39 15 32 37 35 35 38 41 40 38 36 36 33 29 26 24 25 25 24 27 26 24 22 20 18 20 21 20 18 18 17 17 18 17 16 16 16
13 20 22 17 20 20 20 15 20 21 30 27 32 31 28 34 36 39 44 43 42 37 37 37 33 29 25 23 20 19 21 25 25 24 24 21 17 18 19 17 16 18 19 19 17 15 17 17 18
14 17 23 12 15 20 20 12 18 18 20 16 25 29 35 43 44 42 45 43 39 38 38 36 32 31 25 22 14 15 19 22 21 25 23 20 16 19 21 19 17 19 20 19 17 18 17 18 19
19 16 27 25 24 26 26 10 13 21 33 15 32 39 41 45 44 43 44 41 38 41 41 37 35 33 31 29 7 13 21 18 20 18 17 19 20 21 22 19 18 18 19 17 17 17 17 17 18
20 17 17 15 13 12 17 27 28 26 26 19 27 35 38 41 44 43 41 41 42 36 36 33 33 28 28 28 25 24 23 17 20 20 18 19 19 21 22 19 19 20 20 18 18 18 18 18 18
13 14 7 9 12 12 16 23 24 19 23 11 36 36 38 42 45 51 32 41 46 40 35 33 34 34 27 25 28 31 21 25 20 21 21 19 21 23 21 20 20 21 18 17 17 18 19 19 20
14 14 21 15 13 8 15 20 13 22 31 37 39 38 40 43 45 47 42 46 41 43 40 37 35 34 34 31 30 28 28 23 22 21 19 19 21 22 21 21 20 21 18 17 19 22 24 23 23
Wind_Direction
95 131 206 310 118 105 105 140 338 9 338 344 5 3 357 18 15 14 19 31 2 9 8 6 357 354 349 344 342 340 337 336 332 328 325 321 317 313 310 304 299 296 294 293 290 287 282 279 282
128 214 12 17 75 61 117 67 345 345 338 338 355 20 10 39 6 358 358 30 349 351 357 358 350 346 345 345 345 342 338 333 328 326 326 324 320 316 315 312 309 303 299 296 293 291 287 282 276
48 21 1 71 47 11 10 328 341 346 340 351 4 8 18 32 6 349 -0 17 358 359 358 350 343 345 346 348 347 343 338 336 337 338 335 334 336 335 329 325 321 312 304 296 292 290 290 287 282
57 40 344 33 18 7 12 357 347 0 33 16 31 354 20 24 15 0 6 17 351 350 352 344 347 351 349 345 346 344 340 335 332 331 328 327 327 327 329 328 328 324 315 306 301 292 285 284 281
71 77 42 18 3 351 24 21 38 28 23 21 36 17 16 16 1 352 353 357 2 343 350 353 352 351 347 347 347 343 339 338 334 334 331 326 322 320 322 322 323 324 317 306 294 290 291 288 282
69 48 55 7 352 10 20 18 39 42 31 22 50 30 6 2 358 353 343 354 356 354 349 350 347 348 347 346 343 338 335 337 335 334 330 327 323 319 319 319 319 318 315 311 302 294 288 285 282
56 45 39 341 1 13 54 49 45 26 26 11 10 7 359 356 351 348 351 347 349 356 356 347 343 337 338 334 331 329 331 328 327 327 328 328 323 321 318 315 314 314 311 309 305 298 291 288 286
75 27 78 314 338 2 16 73 44 16 6 351 348 349 345 342 347 345 2 346 339 352 350 340 333 330 328 324 324 322 318 314 314 320 319 322 320 316 313 310 308 309 307 305 302 297 291 288 285
82 98 306 320 349 6 332 31 349 322 320 353 343 347 343 341 340 342 345 339 336 329 334 336 333 326 320 314 315 314 311 305 316 323 321 322 319 319 315 310 309 307 308 312 312 310 304 297 294
76 351 305 289 339 357 351 346 350 339 349 346 354 346 347 347 340 335 337 340 338 337 329 328 326 324 313 305 305 302 312 314 314 319 314 308 308 312 308 307 308 306 309 310 311 308 302 298 292
74 321 31 11 355 336 341 343 348 337 347 340 352 355 352 349 349 342 336 343 343 338 335 341 340 334 327 320 315 310 308 302 310 309 316 304 310 316 317 316 317 318 316 312 307 305 301 298 294
215 74 13 79 33 18 4 334 326 353 351 345 358 360 8 6 -0 359 353 348 349 349 347 348 340 338 345 350 347 340 326 315 305 301 314 291 308 317 315 315 313 312 308 304 305 303 301 299 298
8 11 5 359 36 19 7 337 326 340 356 352 345 351 12 6 353 358 4 10 1 357 350 348 353 349 348 337 349 343 331 328 320 322 322 307 316 315 318 319 318 315 312 309 308 306 306 305 305
12 39 29 69 34 19 11 347 300 339 346 10 354 9 13 10 12 8 2 3 4 358 354 348 344 342 340 345 352 350 358 1 353 345 325 330 321 323 322 317 317 315 314 312 310 313 313 312 313
6 15 202 100 259 35 349 39 334 347 354 6 356 2 1 12 27 22 17 7 358 353 354 350 350 345 340 343 347 352 4 4 357 343 332 329 323 327 325 323 323 324 321 318 317 315 310 309 316
360 354 1 24 6 4 325 16 271 9 347 21 358 353 349 7 12 14 23 11 359 354 355 348 342 337 337 336 342 345 345 352 345 336 329 336 333 331 330 327 325 330 327 321 317 314 312 311 313
360 355 19 45 36 333 315 338 338 301 131 26 353 354 1 8 359 10 13 2 356 353 342 338 337 338 338 333 335 337 339 340 336 329 326 332 330 327 325 325 323 327 328 326 321 319 315 311 308
343 15 16 3 33 288 323 322 329 328 336 347 340 23 9 3 1 358 9 9 3 355 350 345 341 334 332 329 325 331 333 335 326 325 327 325 322 322 326 326 328 329 331 329 324 323 317 311 312
341 349 345 328 345 337 322 42 338 342 338 17 320 201 22 358 356 350 358 355 353 349 348 346 344 336 330 323 321 327 330 328 327 326 325 323 328 332 331 333 331 331 330 327 326 325 330 326 325
331 348 336 321 312 307 296 326 345 353 346 44 15 12 20 352 346 346 352 351 351 347 343 343 350 341 330 324 323 325 328 325 324 327 331 331 333 337 336 328 329 335 333 325 328 332 325 329 326
324 319 332 319 332 304 304 343 341 359 346 14 27 20 18 1 352 356 355 350 343 351 351 348 343 340 333 324 319 323 327 325 330 335 331 325 328 334 327 327 332 337 334 335 339 333 335 333 327
310 271 288 319 312 316 309 335 8 0 17 58 29 20 10 13 359 353 353 354 352 348 348 341 337 331 322 315 313 321 326 328 329 326 327 333 333 335 332 337 337 341 338 341 338 338 334 331 337
290 314 330 341 12 352 359 357 333 336 329 136 50 9 356 358 4 352 353 351 353 352 348 341 333 326 314 310 313 320 327 327 330 331 330 333 335 337 334 337 342 340 337 339 337 332 339 341 337
293 309 329 316 317 353 17 343 335 337 331 338 321 330 350 348 355 353 350 350 352 350 347 344 340 332 319 320 320 325 330 328 330 331 327 329 334 330 330 338 338 334 335 335 338 343 342 336 332
299 307 316 317 345 355 325 314 309 334 335 358 356 9 349 344 354 350 346 350 347 348 348 346 343 337 322 311 313 329 327 329 328 327 328 331 336 330 332 335 337 335 332 338 338 345 343 337 332
282 290 284 339 314 309 314 345 334 341 342 335 350 1 356 351 350 349 345 348 348 348 348 346 351 350 318 302 320 324 331 330 332 328 328 327 330 332 336 334 335 335 336 334 337 336 334 339 336
251 269 294 307 309 312 310 1 349 342 325 25 359 0 349 346 343 346 343 345 354 348 345 348 349 351 331 335 292 324 312 327 330 330 329 326 329 336 335 332 335 333 324 329 333 334 336 335 338
264 259 288 299 336 325 325 337 330 324 337 345 354 357 348 339 338 343 347 350 347 347 344 342 341 344 352 343 336 323 308 336 346 343 336 331 329 333 333 333 335 334 331 330 333 332 331 335 340
266 282 325 328 322 325 330 315 321 351 19 319 354 347 342 341 341 343 350 350 340 344 345 341 340 340 342 346 336 327 323 358 348 336 331 328 330 332 333 332 336 329 323 325 331 332 331 335 338
272 313 312 302 327 354 323 314 334 340 344 347 348 343 338 344 342 347 340 340 340 339 345 340 337 340 334 343 341 336 334 342 342 328 328 327 328 328 331 328 328 325 323 323 331 335 335 339 334